TimeEST,TemperatureF,Dew PointF,Humidity,Sea Level PressureIn,VisibilityMPH,Wind Direction,Wind SpeedMPH,Gust SpeedMPH,PrecipitationIn,Events,Conditions,WindDirDegrees,DateUTC
12:00 AM,24.8,24.8,100,30.40,4.0,Calm,Calm,-,N/A,,Clear,0,2013-01-09 05:00:00
12:20 AM,24.8,24.8,100,30.42,3.0,Calm,Calm,-,N/A,,Clear,0,2013-01-09 05:20:00
12:40 AM,24.8,24.8,100,30.41,1.2,Calm,Calm,-,N/A,,Mist,0,2013-01-09 05:40:00
1:00 AM,23.0,23.0,100,30.40,5.0,Calm,Calm,-,N/A,,Clear,0,2013-01-09 06:00:00
1:25 AM,23.0,23.0,100,30.40,7.0,Calm,Calm,-,N/A,,Clear,0,2013-01-09 06:25:00
1:45 AM,23.0,23.0,100,30.40,7.0,Calm,Calm,-,N/A,,Clear,0,2013-01-09 06:45:00
2:05 AM,23.0,23.0,100,30.40,4.0,Calm,Calm,-,N/A,,Clear,0,2013-01-09 07:05:00
2:25 AM,23.0,23.0,100,30.39,5.0,Calm,Calm,-,N/A,,Clear,0,2013-01-09 07:25:00
2:50 AM,23.0,23.0,100,30.40,5.0,Calm,Calm,-,N/A,,Clear,0,2013-01-09 07:50:00
3:10 AM,23.0,23.0,100,30.39,5.0,Calm,Calm,-,N/A,,Clear,0,2013-01-09 08:10:00
3:30 AM,23.0,23.0,100,30.39,4.0,Calm,Calm,-,N/A,,Clear,0,2013-01-09 08:30:00
3:50 AM,23.0,23.0,100,30.39,1.8,Calm,Calm,-,N/A,,Mist,0,2013-01-09 08:50:00
4:15 AM,23.0,23.0,100,30.39,5.0,Calm,Calm,-,N/A,,Clear,0,2013-01-09 09:15:00
4:35 AM,23.0,23.0,100,30.39,5.0,Calm,Calm,-,N/A,,Clear,0,2013-01-09 09:35:00
4:55 AM,23.0,23.0,100,30.38,7.0,Calm,Calm,-,N/A,,Clear,0,2013-01-09 09:55:00
5:15 AM,24.8,24.8,100,30.38,5.0,Calm,Calm,-,N/A,,Clear,0,2013-01-09 10:15:00
5:40 AM,24.8,24.8,100,30.38,7.0,Calm,Calm,-,N/A,,Clear,0,2013-01-09 10:40:00
5:50 AM,24.8,24.8,100,30.38,7.0,Calm,Calm,-,N/A,,Clear,0,2013-01-09 10:50:00
6:48 AM,24.8,24.8,100,30.37,7.0,Calm,Calm,-,N/A,,Clear,0,2013-01-09 11:48:00
7:50 AM,26.6,26.6,100,30.39,7.0,Calm,Calm,-,N/A,,Clear,0,2013-01-09 12:50:00
8:50 AM,30.2,30.2,100,30.39,7.0,Calm,Calm,-,N/A,,Clear,0,2013-01-09 13:50:00
9:47 AM,33.8,33.8,100,30.39,7.0,Calm,Calm,-,N/A,,Clear,0,2013-01-09 14:47:00
10:50 AM,39.2,35.6,87,30.38,10.0,Calm,Calm,-,N/A,,Overcast,0,2013-01-09 15:50:00
11:50 AM,42.8,35.6,76,30.34,7.0,South,3.5,-,N/A,,Mostly Cloudy,190,2013-01-09 16:50:00
1:55 PM,42.8,39.2,87,30.30,7.0,SW,5.8,-,N/A,,Overcast,220,2013-01-09 18:55:00
2:50 PM,42.8,39.2,87,30.25,7.0,SW,6.9,-,N/A,,Mostly Cloudy,230,2013-01-09 19:50:00
3:50 PM,42.8,39.2,87,30.27,7.0,SW,4.6,-,N/A,,Mostly Cloudy,220,2013-01-09 20:50:00
4:50 PM,42.8,39.2,87,30.27,7.0,WSW,5.8,-,N/A,,Mostly Cloudy,240,2013-01-09 21:50:00
5:52 PM,42.8,37.4,81,30.28,10.0,Variable,4.6,-,N/A,,Mostly Cloudy,0,2013-01-09 22:52:00
6:53 PM,39.2,37.4,93,30.32,10.0,SSE,5.8,-,N/A,,Clear,150,2013-01-09 23:53:00
7:59 PM,39.2,37.4,93,30.33,10.0,SE,4.6,-,N/A,,Clear,130,2013-01-10 00:59:00
8:10 PM,39.2,37.4,93,30.33,10.0,ESE,5.8,-,N/A,,Clear,120,2013-01-10 01:10:00
8:30 PM,41.0,37.4,87,30.33,10.0,ESE,3.5,-,N/A,,Clear,120,2013-01-10 01:30:00
8:55 PM,42.8,37.4,81,30.35,10.0,ESE,4.6,-,N/A,,Clear,120,2013-01-10 01:55:00
9:15 PM,42.8,35.6,76,30.36,10.0,ESE,5.8,-,N/A,,Clear,120,2013-01-10 02:15:00
9:35 PM,42.8,35.6,76,30.36,10.0,Calm,Calm,-,N/A,,Clear,0,2013-01-10 02:35:00
9:55 PM,41.0,33.8,76,30.36,10.0,Calm,Calm,-,N/A,,Clear,0,2013-01-10 02:55:00
10:20 PM,42.8,33.8,70,30.37,10.0,East,4.6,-,N/A,,Clear,100,2013-01-10 03:20:00
10:40 PM,42.8,32.0,66,30.37,10.0,Calm,Calm,-,N/A,,Clear,0,2013-01-10 03:40:00
11:00 PM,42.8,32.0,66,30.38,10.0,SW,4.6,-,N/A,,Clear,220,2013-01-10 04:00:00
11:20 PM,44.6,32.0,61,30.39,10.0,South,4.6,-,N/A,,Clear,180,2013-01-10 04:20:00
11:45 PM,41.0,32.0,70,30.40,10.0,WSW,5.8,-,N/A,,Clear,240,2013-01-10 04:45:00